Theta_e
321 321 322 322 323 323 324 324 325 325 326 326 327 326 326 327 326 327 327 327 327 327 327 327 327 327 327 327 326 325 325 324 324 324 324 325 325 324 323 323 323 323
321 321 322 322 322 323 323 323 324 324 325 326 326 327 327 327 327 327 327 327 327 327 327 327 327 327 327 327 327 326 326 325 325 325 325 325 326 325 325 324 324 324
321 321 321 322 322 323 323 323 324 324 325 326 326 327 327 327 327 327 327 327 327 327 327 327 327 327 327 327 327 327 327 326 326 326 326 326 326 326 325 325 325 325
321 321 322 322 322 322 323 323 324 325 325 325 326 326 327 327 327 327 327 327 327 327 327 327 327 327 327 327 327 327 327 327 327 326 326 326 326 326 326 326 326 326
320 321 322 322 322 322 322 323 324 324 325 325 326 326 326 326 326 326 327 327 327 327 326 327 327 327 327 327 327 327 327 327 327 327 326 326 326 326 326 326 326 326
320 321 321 322 322 322 322 323 324 324 325 325 325 325 326 326 326 326 326 326 326 326 326 327 327 327 327 327 327 327 327 327 327 327 327 326 327 327 326 326 326 326
321 321 321 321 321 322 322 323 324 324 325 325 325 325 325 325 325 326 326 326 326 326 326 327 327 327 327 327 327 327 327 327 327 327 327 327 327 327 327 327 326 326
322 321 321 322 321 321 322 323 324 324 324 324 325 325 325 325 325 325 326 326 326 326 326 326 327 327 327 327 327 327 327 327 327 327 327 327 327 327 327 327 327 326
323 323 322 322 321 321 322 323 323 323 323 324 325 326 325 325 325 325 325 326 326 326 326 326 326 326 327 327 327 327 327 327 327 327 327 327 327 327 327 327 326 326
323 323 323 323 322 322 322 323 323 323 324 325 326 326 325 325 325 325 325 325 325 326 326 326 326 326 327 327 327 327 327 327 327 327 327 327 327 327 327 327 327 326
323 323 324 323 323 323 323 324 324 324 325 326 326 325 324 324 324 324 325 325 325 326 326 326 326 326 327 327 327 327 327 327 327 327 327 327 327 327 327 327 326 326
322 323 324 324 324 324 324 325 325 325 325 325 324 323 322 321 320 321 322 324 325 325 325 326 326 326 327 327 327 327 327 327 327 327 327 327 327 327 327 326 326 326
318 319 321 322 322 322 322 322 322 321 321 320 320 319 317 317 317 317 319 322 324 324 325 325 326 326 327 327 327 327 327 327 327 327 327 327 327 327 327 326 326 326
315 316 316 316 317 316 317 316 316 315 315 315 315 315 314 314 315 316 318 321 322 323 324 324 325 325 326 326 326 327 327 327 327 327 327 327 327 327 327 327 327 326
315 315 315 315 315 315 315 315 314 315 314 314 314 314 314 314 314 315 317 319 320 322 322 323 323 323 323 324 325 326 326 327 327 327 327 327 327 327 327 327 326 326
316 316 316 316 316 316 315 315 316 315 316 316 316 316 316 315 314 314 315 316 317 319 320 321 321 321 321 322 323 325 326 326 326 326 326 327 327 326 326 326 326 326
317 317 317 317 317 317 316 316 316 316 316 316 316 317 317 316 315 314 313 314 314 316 318 319 319 320 320 321 323 324 325 325 326 326 326 326 326 326 326 326 325 325
318 318 318 318 318 318 318 317 317 317 316 316 316 317 317 317 316 315 313 312 313 314 315 317 318 319 319 321 323 324 324 325 325 326 326 326 326 325 325 325 324 324
317 317 318 318 318 318 318 318 318 317 317 316 315 316 316 316 316 315 313 313 313 313 315 316 318 318 319 321 322 324 324 324 324 325 325 325 324 324 324 323 323 323
317 317 318 318 318 319 319 319 318 318 317 316 315 314 315 315 315 315 314 314 314 314 315 316 318 319 320 321 322 323 323 322 322 323 323 323 323 323 323 323 323 323
317 317 318 318 319 319 319 319 318 318 317 316 314 313 313 313 313 314 314 314 315 315 316 317 318 319 320 320 321 321 321 321 321 321 321 321 322 322 322 322 322 322
316 317 318 318 319 319 318 318 317 316 315 314 313 312 312 312 312 312 313 314 315 315 316 317 317 318 318 319 319 319 319 319 320 320 320 321 321 321 321 320 321 321
316 316 317 318 318 318 317 316 315 314 313 312 312 311 311 311 310 311 311 312 313 314 314 315 316 316 317 317 317 317 317 317 318 318 318 318 318 318 319 319 319 319
315 315 315 316 315 315 314 313 312 312 311 311 311 311 311 311 310 310 310 310 311 311 311 312 312 313 313 314 315 315 315 315 315 315 315 315 314 315 315 315 315 315
314 314 314 314 313 313 312 312 311 311 311 311 311 311 311 311 310 310 310 310 310 310 310 310 310 310 310 311 311 311 312 312 312 312 312 312 312 312 312 312 312 312
311 311 312 312 313 312 312 311 311 311 311 310 310 310 310 310 310 309 309 309 309 309 309 309 308 308 308 308 308 309 309 309 309 309 309 309 309 309 309 310 310 310
Wind_Speed
44 43 44 45 45 45 46 47 48 50 51 51 52 52 51 49 48 48 49 49 49 49 47 47 46 45 44 43 44 45 46 47 47 47 47 47 46 46 47 48 48 49
43 43 44 45 46 45 44 44 45 48 50 51 51 51 51 50 49 49 49 49 49 49 47 47 47 45 44 44 44 45 44 45 45 45 46 46 44 44 45 45 46 48
40 42 43 45 45 45 43 42 43 46 48 50 51 51 50 49 48 48 49 50 49 48 47 47 47 45 45 44 44 45 45 44 44 43 45 46 43 43 43 43 44 45
36 38 40 42 43 43 43 42 43 44 45 47 48 48 48 48 48 48 49 48 48 47 46 46 46 45 45 44 44 46 45 44 44 43 45 46 43 43 43 43 44 45
34 35 37 39 41 42 42 42 42 42 43 44 45 46 47 47 47 47 47 47 47 46 45 45 45 45 44 45 45 46 45 44 43 43 45 46 43 43 43 43 45 45
34 36 37 38 39 40 41 42 41 41 41 42 42 44 46 46 46 47 47 46 46 45 45 44 44 44 44 44 45 46 45 44 43 43 45 45 43 42 43 44 45 45
33 35 37 38 38 39 40 40 40 39 39 39 40 43 45 45 46 46 46 46 46 45 45 44 44 44 43 44 45 46 45 44 43 43 45 45 43 43 43 44 46 46
30 32 35 36 37 38 38 37 36 35 35 37 40 41 42 44 44 44 44 45 46 46 45 44 43 43 42 43 44 45 45 44 43 44 45 45 44 43 43 44 45 46
29 31 32 34 35 36 36 35 34 33 34 37 39 39 41 42 42 42 43 44 45 45 45 43 42 42 42 42 43 44 43 43 43 43 44 44 44 44 43 43 44 45
30 30 31 32 34 34 35 35 35 35 36 37 38 39 40 40 40 41 42 43 44 44 44 43 42 41 41 42 43 42 42 42 42 43 43 44 44 43 42 42 43 44
30 30 30 31 32 33 33 34 36 37 37 37 38 39 39 39 39 39 40 41 42 42 42 41 40 39 40 41 41 41 41 42 42 42 43 43 43 42 42 42 42 43
28 29 29 30 31 31 31 31 32 34 35 36 37 38 38 37 37 38 38 39 39 39 39 39 38 38 38 39 39 40 40 41 41 41 41 42 42 41 41 41 41 41
25 25 26 27 28 28 28 29 30 32 33 34 35 35 35 35 35 36 36 37 37 37 37 36 36 36 37 37 38 38 39 40 40 40 40 41 41 40 39 39 39 39
24 24 24 24 25 26 27 28 29 30 30 31 31 31 32 32 33 34 34 35 36 36 35 34 34 35 35 35 36 37 38 39 39 39 39 39 39 38 37 36 36 36
21 20 21 21 22 23 23 24 25 25 26 26 27 27 28 29 30 31 32 33 34 35 35 34 34 35 34 33 34 34 35 36 36 36 37 37 36 36 35 34 34 33
18 17 17 18 18 19 20 20 21 22 22 23 24 25 26 26 27 29 30 32 33 34 34 34 34 34 33 32 31 31 32 32 33 34 35 35 35 34 34 33 31 31
18 17 16 16 17 17 19 20 21 22 23 23 24 24 24 24 25 26 28 29 31 32 33 34 34 33 31 30 29 29 29 30 31 32 33 33 33 33 32 30 29 29
20 19 17 17 17 17 19 20 21 22 24 25 26 25 24 24 24 25 25 26 28 30 31 31 31 29 28 27 27 27 27 28 29 30 31 31 31 31 30 29 28 28
23 21 19 18 18 19 19 20 21 22 23 24 26 27 26 26 25 23 23 24 25 27 28 28 28 26 26 26 26 26 27 27 29 29 29 30 29 29 28 28 28 27
25 23 21 20 20 20 20 20 21 22 22 23 25 26 27 27 25 24 23 23 23 25 25 26 25 25 25 26 26 27 26 27 28 28 29 29 28 27 26 26 26 26
27 25 24 22 21 21 21 21 21 22 23 24 24 25 26 27 26 25 24 23 23 24 25 25 25 25 25 26 27 27 26 26 27 27 27 27 27 25 25 26 26 26
29 28 27 25 23 22 21 21 22 23 24 24 24 25 25 25 25 24 23 23 23 24 24 24 24 25 26 26 26 26 25 25 26 26 27 27 27 26 26 27 26 26
30 28 27 25 23 23 22 22 22 22 23 23 23 24 24 23 23 22 22 21 21 22 22 22 22 23 24 25 25 25 24 25 26 26 27 27 27 27 28 28 28 28
26 25 24 23 23 23 22 21 21 20 20 20 20 20 20 19 19 18 18 18 18 18 19 19 19 20 21 22 22 23 23 24 24 25 25 25 26 27 28 28 29 29
23 22 22 22 22 22 22 21 20 19 18 18 17 17 16 15 15 15 14 15 15 15 15 16 16 17 18 19 19 19 20 21 22 22 23 23 24 25 26 27 27 27
19 19 19 20 21 21 20 20 20 19 17 16 16 15 14 13 12 12 12 13 13 13 13 13 13 14 15 16 16 17 18 18 19 19 20 20 21 22 22 23 23 24
Wind_Direction
278 276 274 274 274 274 274 273 273 273 272 272 272 273 275 276 277 276 275 276 276 275 276 277 277 277 276 273 271 269 268 267 267 267 268 268 270 270 269 269 270 269
277 275 274 273 272 272 273 274 274 274 273 273 272 273 275 275 276 275 275 275 275 275 276 276 276 276 275 274 272 270 269 268 268 267 267 268 269 270 269 270 270 270
277 275 273 272 271 272 273 275 275 274 274 273 272 273 274 276 276 276 275 274 274 275 276 275 275 275 274 274 273 271 270 270 270 269 267 268 269 269 269 270 270 269
277 276 275 273 272 272 273 274 274 274 274 274 274 274 275 276 276 275 274 274 274 275 276 275 275 275 274 273 272 270 271 271 271 269 267 267 268 268 269 269 269 269
277 278 277 276 274 273 273 272 272 273 274 275 276 275 275 275 275 274 273 273 273 274 275 275 275 274 273 273 271 270 271 271 271 269 267 267 268 269 269 268 268 268
276 278 279 279 277 275 273 272 272 272 273 275 276 275 275 274 273 273 272 273 273 273 273 274 274 274 273 272 271 271 271 271 271 269 267 267 269 269 269 268 268 268
275 278 280 280 279 275 273 272 271 270 271 273 274 274 273 273 272 272 272 272 272 273 273 273 273 273 274 273 271 271 271 271 271 269 268 268 269 269 268 268 268 268
276 277 278 279 277 274 271 270 269 268 271 272 272 272 272 272 272 271 271 272 271 272 272 272 273 273 273 273 271 271 271 272 271 269 268 268 268 269 269 269 268 268
273 273 274 275 274 272 269 268 268 269 270 270 270 271 271 271 271 271 271 271 271 271 271 271 272 273 272 272 271 271 272 272 272 270 269 269 269 270 271 270 269 269
268 268 271 272 272 271 269 269 269 269 269 268 269 269 269 269 270 270 270 270 270 270 270 270 270 271 271 271 271 271 271 272 272 271 271 270 271 271 272 271 270 270
267 268 270 271 272 272 272 271 271 270 268 268 268 268 268 269 269 269 269 269 268 269 269 269 270 271 271 271 271 272 272 272 271 271 271 271 272 272 272 271 271 271
274 272 271 273 273 273 273 272 270 269 268 268 268 269 269 270 270 270 269 267 267 267 268 269 270 270 270 271 272 272 272 271 271 271 271 271 272 272 272 272 272 272
282 278 273 271 271 270 269 267 265 264 265 265 267 268 269 271 271 271 270 268 266 265 266 267 268 269 270 270 271 271 271 271 271 271 271 271 271 272 272 273 273 273
282 278 275 271 269 267 264 263 262 262 263 264 266 267 269 270 271 271 271 269 267 265 264 265 265 266 266 267 268 269 270 270 270 271 271 271 271 272 272 272 273 273
279 276 275 273 271 269 267 265 265 265 266 267 268 270 270 271 270 270 269 268 266 265 264 263 263 263 263 264 265 267 268 269 270 270 270 270 270 270 271 271 271 272
280 278 278 278 279 278 276 275 273 272 272 272 271 272 273 273 272 270 269 267 266 265 263 262 262 261 261 262 262 264 266 267 268 268 269 269 269 269 269 269 270 271
282 281 282 283 284 285 285 285 284 283 281 279 277 275 275 275 274 272 270 268 266 265 263 261 261 260 260 260 261 262 263 263 264 266 267 267 267 267 267 267 268 268
283 283 283 284 284 285 286 287 288 288 288 286 283 279 276 274 273 271 269 267 265 263 261 260 259 258 257 258 258 258 257 257 259 261 263 264 265 265 265 265 264 264
279 278 278 280 281 283 284 285 287 287 288 288 286 284 280 277 274 271 268 264 261 260 259 258 257 256 254 254 254 254 253 253 254 256 258 259 261 261 261 261 261 262
270 269 271 274 277 279 281 282 284 285 285 286 285 284 282 279 275 271 267 262 259 257 256 255 254 252 250 249 250 250 251 251 251 252 253 254 255 256 257 258 259 260
266 266 267 269 271 273 276 277 279 280 280 281 279 278 277 275 273 270 267 263 259 256 254 253 251 250 248 248 248 249 250 250 251 250 250 250 250 251 252 253 255 256
266 266 266 266 267 269 272 274 276 276 276 276 274 272 270 269 268 267 265 263 261 259 258 256 254 253 252 251 250 250 249 249 249 249 248 247 247 246 247 248 250 252
265 264 265 265 267 269 271 272 273 273 274 274 273 271 269 267 267 267 267 267 266 265 264 263 261 260 259 258 256 254 253 252 252 251 250 249 247 247 246 246 246 248
264 264 265 266 268 269 270 270 270 270 271 271 270 271 271 270 271 272 272 273 272 270 268 266 265 264 262 262 261 261 260 259 259 258 257 256 255 253 252 251 250 251
266 266 266 266 267 267 268 268 268 266 267 266 266 267 268 269 271 272 273 272 271 270 268 265 265 264 263 263 263 263 262 261 261 262 261 262 261 260 259 258 258 259
269 269 269 267 266 266 265 266 266 264 264 263 262 262 261 262 263 264 266 267 267 267 266 266 266 267 267 268 268 266 265 264 264 265 265 265 265 265 266 266 266 266